"startDT [UTC]","vpos","CH4 [ppm]","stdev(CH4) [ppm]","CO2 [ppm]","stdev(CO2) [ppm]","H2O_reported [%]","stdev(H2O_reported)","CavityPressure [torr]","CavityTemp [C]","OutletValve","CH4_dry [ppm]","CO2_dry [ppm]","DasTemp [C]","EtalonTemp [C]","WarmBoxTemp [C]","MPVPosition","T_ECpre [C]","T_EC1 [C]","T_EC2 [C]","p_inlet [hPa]","p_in [hPa]","p_out [hPa]","T_inlet [C]","RH_inlet [%]","dwpt_inlet [C]","T_vent [C]","RH_vent [%]","dwpt_vent [C]","flow_vent [l min-1]","flow_inlet [l min-1]","dwpt_sample [C]","T_room [C]"
2015-08-16 00:00:00,0.0,1.91974,0.00040,383.484,0.182,0.9767,0.0028,139.999,45.000,34544.54284,1.93875,388.125,33.213,45.068,45.000,0.00,0.10,-272.74,-272.80,-8,1014,-6,24.1,25.6,3.1,23.8,26.4,3.3,5.73,1.87,3.3,27.8
2015-08-16 00:01:00,0.0,1.91934,0.00035,383.022,0.371,0.9819,0.0051,140.003,45.000,34547.45636,1.93853,387.685,33.223,45.068,45.000,0.00,0.10,-272.73,-272.79,-8,1014,-6,24.1,25.8,3.3,23.8,26.5,3.4,5.73,1.94,3.3,27.7
2015-08-16 00:02:00,0.0,1.91991,0.00060,383.114,0.253,0.9925,0.0029,139.997,45.000,34542.34668,1.93921,387.833,33.224,45.068,45.000,0.00,0.10,-272.73,-272.79,-9,1014,-6,24.1,26.0,3.4,23.8,26.8,3.6,5.73,1.97,3.3,27.8
2015-08-16 00:03:00,0.0,1.91977,0.00017,383.293,0.124,0.9882,0.0026,140.002,45.000,34542.69814,1.93906,387.998,33.241,45.068,45.000,0.00,0.10,-272.73,-272.80,-8,1013,-6,24.1,25.9,3.3,23.8,26.7,3.5,5.73,1.92,3.3,27.8
2015-08-16 00:04:00,0.0,1.91992,0.00031,383.366,0.161,0.9837,0.0026,139.993,45.000,34542.73539,1.93908,388.050,33.248,45.068,45.000,0.00,0.10,-272.73,-272.79,-8,1014,-6,24.1,25.7,3.2,23.8,26.6,3.4,5.73,1.86,3.3,27.8
2015-08-16 00:05:00,0.0,1.91954,0.00040,383.348,0.140,0.9839,0.0030,140.001,45.000,34545.38278,1.93873,388.031,33.231,45.068,45.000,0.00,0.10,-272.72,-272.79,-8,1014,-6,24.1,25.8,3.2,23.8,26.5,3.4,5.73,1.86,3.3,27.8
2015-08-16 00:06:00,0.0,1.91904,0.00067,383.196,0.189,0.9926,0.0029,139.998,45.000,34543.44339,1.93845,387.923,33.241,45.068,45.000,0.00,0.10,-272.73,-272.80,-9,1014,-6,24.1,26.1,3.4,23.8,26.8,3.5,5.73,1.92,3.3,27.8
2015-08-16 00:07:00,0.0,1.91843,0.00070,382.896,0.433,1.0094,0.0063,140.002,45.000,34543.89005,1.93819,387.683,33.225,45.068,45.000,0.00,0.10,-272.73,-272.80,-8,1013,-6,24.1,26.5,3.6,23.8,27.2,3.8,5.73,1.97,3.3,27.7
2015-08-16 00:08:00,0.0,1.91837,0.00069,383.359,0.221,0.9965,0.0084,140.000,45.000,34544.49295,1.93770,388.104,33.217,45.068,45.000,0.00,0.10,-272.73,-272.79,-8,1014,-6,24.1,26.1,3.4,23.8,27.0,3.7,5.73,1.95,3.3,27.7
2015-08-16 00:09:00,0.0,1.91896,0.00029,383.392,0.123,0.9909,0.0019,139.998,45.000,34544.00787,1.93828,388.122,33.207,45.068,45.000,0.00,0.10,-272.73,-272.79,-8,1014,-6,24.1,26.0,3.3,23.8,26.8,3.6,5.73,1.87,3.3,27.7
2015-08-16 00:10:00,0.0,1.91844,0.00044,383.085,0.287,1.0017,0.0059,140.001,45.000,34544.12435,1.93796,387.838,33.207,45.068,45.000,0.00,0.10,-272.73,-272.80,-9,1014,-6,24.1,26.3,3.5,23.8,27.0,3.7,5.73,1.85,3.3,27.7
2015-08-16 00:11:00,0.0,1.91869,0.00054,383.385,0.100,0.9894,0.0099,139.999,45.000,34543.19964,1.93801,388.102,33.231,45.068,45.000,0.00,0.10,-272.73,-272.80,-8,1014,-6,24.1,25.8,3.2,23.8,26.8,3.5,5.73,1.90,3.3,27.7
2015-08-16 00:12:00,0.0,1.91901,0.00039,383.213,0.138,0.9833,0.0027,140.002,45.000,34542.76493,1.93811,387.886,33.229,45.068,45.000,0.00,0.10,-272.73,-272.79,-8,1014,-6,24.1,25.7,3.2,23.8,26.5,3.4,5.73,1.97,3.4,27.7
2015-08-16 00:13:00,0.0,1.91980,0.00047,383.477,0.128,0.9820,0.0067,139.998,45.000,34542.24516,1.93890,388.154,33.231,45.068,45.000,0.00,0.10,-272.73,-272.80,-8,1014,-6,24.1,25.6,3.2,23.8,26.5,3.4,5.73,1.96,3.4,27.7
2015-08-16 00:14:00,0.0,1.91975,0.00041,383.285,0.192,0.9819,0.0050,139.999,45.000,34543.96174,1.93890,387.953,33.230,45.068,45.000,0.00,0.10,-272.74,-272.79,-9,1014,-6,24.1,25.7,3.2,23.8,26.4,3.4,5.73,1.89,3.4,27.7
2015-08-16 00:15:00,0.0,1.91949,0.00040,383.401,0.100,0.9836,0.0035,139.998,45.000,34545.33384,1.93870,388.082,33.247,45.068,45.000,0.00,0.10,-272.73,-272.78,-8,1014,-6,24.1,25.7,3.2,23.8,26.5,3.4,5.73,1.84,3.4,27.7
2015-08-16 00:16:00,0.0,1.91921,0.00053,383.291,0.110,0.9860,0.0038,139.997,45.000,34544.37077,1.93844,387.991,33.250,45.068,45.000,0.00,0.10,-272.73,-272.80,-8,1014,-6,24.1,25.8,3.3,23.8,26.5,3.4,5.73,1.88,3.4,27.8
2015-08-16 00:17:00,0.0,1.91918,0.00046,383.072,0.158,1.0036,0.0057,139.997,45.000,34544.23292,1.93872,387.844,33.253,45.068,45.000,0.00,0.10,-272.74,-272.79,-8,1014,-6,24.1,26.3,3.5,23.8,27.0,3.7,5.73,1.95,3.4,27.8
2015-08-16 00:18:00,0.0,1.91978,0.00038,383.276,0.105,0.9989,0.0086,139.997,45.000,34546.52134,1.93929,388.034,33.266,45.068,45.000,0.00,0.10,-272.73,-272.79,-9,1014,-6,24.1,26.1,3.4,23.8,27.0,3.7,5.73,1.97,3.4,27.7
2015-08-16 00:19:00,0.0,1.91848,0.00054,383.026,0.198,1.0032,0.0061,139.997,45.000,34544.89931,1.93804,387.794,33.277,45.068,45.000,0.00,0.10,-272.73,-272.80,-8,1013,-6,24.1,26.2,3.5,23.8,27.1,3.7,5.73,1.91,3.4,27.8
2015-08-16 00:20:00,0.0,1.91970,0.00017,383.326,0.123,0.9815,0.0046,139.996,45.000,34542.50457,1.93883,387.996,33.272,45.068,45.000,0.00,0.10,-272.73,-272.80,-8,1014,-6,24.1,25.6,3.2,23.8,26.5,3.4,5.73,1.86,3.4,27.8
2015-08-16 00:21:00,0.0,1.91975,0.00045,383.336,0.186,0.9782,0.0061,139.996,45.000,34542.00505,1.93880,388.005,33.282,45.068,45.000,0.00,0.10,-272.73,-272.79,-8,1014,-6,24.1,25.5,3.1,23.8,26.4,3.3,5.73,1.86,3.4,27.8
2015-08-16 00:22:00,0.0,1.91942,0.00080,383.087,0.316,1.0005,0.0114,140.004,45.000,34541.52914,1.93896,387.825,33.292,45.068,45.000,0.00,0.10,-272.73,-272.79,-9,1013,-6,24.1,26.2,3.5,23.8,26.9,3.6,5.73,1.92,3.4,27.8
2015-08-16 00:23:00,0.0,1.91923,0.00026,383.664,0.078,0.9710,0.0109,139.999,45.000,34545.65099,1.93817,388.288,33.310,45.068,45.000,0.00,0.10,-272.73,-272.80,-8,1014,-6,24.1,25.3,3.0,23.8,26.3,3.3,5.73,1.98,3.4,27.8
2015-08-16 00:24:00,0.0,1.91917,0.00039,383.550,0.154,0.9709,0.0041,139.999,45.000,34545.83818,1.93807,388.179,33.299,45.068,45.000,0.00,0.10,-272.74,-272.80,-8,1014,-6,24.1,25.4,3.1,23.8,26.1,3.2,5.73,1.94,3.4,27.8
2015-08-16 00:25:00,0.0,1.91916,0.00054,383.165,0.289,0.9835,0.0038,140.001,45.000,34544.00495,1.93834,387.852,33.295,45.068,45.000,0.00,0.10,-272.74,-272.79,-8,1014,-6,24.1,25.8,3.3,23.8,26.5,3.4,5.73,1.87,3.4,27.8
2015-08-16 00:26:00,0.0,1.91862,0.00031,383.075,0.196,1.0114,0.0060,140.002,45.000,34542.15942,1.93836,387.876,33.295,45.068,45.000,0.00,0.10,-272.73,-272.79,-9,1013,-6,24.1,26.5,3.7,23.8,27.2,3.8,5.73,1.85,3.4,27.8
2015-08-16 00:27:00,0.0,1.91925,0.00072,383.272,0.131,0.9975,0.0033,140.001,45.000,34544.32474,1.93863,388.021,33.279,45.068,45.000,0.00,0.10,-272.73,-272.80,-8,1013,-6,24.1,26.1,3.4,23.8,27.0,3.7,5.73,1.89,3.4,27.8
2015-08-16 00:28:00,0.0,1.91991,0.00049,383.257,0.170,0.9967,0.0032,140.002,45.000,34545.02342,1.93934,388.000,33.302,45.068,45.000,0.00,0.10,-272.73,-272.79,-8,1013,-6,24.1,26.1,3.4,23.8,26.8,3.6,5.73,1.96,3.4,27.8
2015-08-16 00:29:00,0.0,1.91879,0.00131,383.327,0.167,0.9925,0.0049,139.999,45.000,34543.80113,1.93830,388.045,33.287,45.068,45.000,0.00,0.10,-272.73,-272.79,-8,1014,-6,24.1,25.8,3.3,23.8,26.8,3.6,5.73,1.97,3.4,27.8
2015-08-16 00:30:00,0.0,1.91849,0.00059,383.628,0.087,0.9621,0.0083,139.998,45.000,34544.91935,1.93720,388.212,33.287,45.068,45.000,0.00,0.10,-272.73,-272.79,-9,1014,-6,24.1,25.0,2.8,23.8,26.0,3.2,5.73,1.90,3.4,27.8
2015-08-16 00:31:00,0.0,1.91838,0.00056,383.367,0.110,0.9570,0.0036,139.999,45.000,34543.54564,1.93692,387.925,33.286,45.068,45.000,0.00,0.10,-272.73,-272.79,-9,1014,-6,24.1,24.9,2.8,23.9,25.7,3.0,5.73,1.85,3.4,27.8
2015-08-16 00:32:00,0.0,1.91807,0.00136,383.551,0.152,0.9505,0.0073,139.999,45.000,34546.78724,1.93671,388.062,33.310,45.068,45.000,0.00,0.10,-272.73,-272.79,-8,1013,-6,24.1,24.7,2.6,23.8,25.6,2.9,5.73,1.87,3.4,27.8
2015-08-16 00:33:00,0.0,1.91780,0.00056,383.677,0.078,0.9365,0.0026,140.000,45.000,34543.32353,1.93597,388.133,33.313,45.068,45.000,0.00,0.10,-272.73,-272.80,-8,1014,-6,24.1,24.4,2.5,23.8,25.1,2.7,5.73,1.93,3.4,27.8
2015-08-16 00:34:00,0.0,1.91948,0.00056,383.412,0.142,0.9449,0.0074,139.998,45.000,34543.63770,1.93775,387.913,33.315,45.068,45.000,0.00,0.10,-272.74,-272.80,-9,1014,-6,24.1,24.7,2.7,23.8,25.3,2.8,5.73,1.97,3.4,27.8
2015-08-16 00:35:00,0.0,1.92105,0.00046,383.514,0.119,0.9558,0.0014,140.002,45.000,34543.67197,1.93960,388.048,33.314,45.068,45.000,0.00,0.10,-272.73,-272.80,-9,1013,-6,24.1,24.9,2.8,23.9,25.6,3.0,5.73,1.94,3.4,27.8
2015-08-16 00:36:00,0.0,1.92150,0.00049,383.587,0.070,0.9555,0.0029,140.001,45.000,34546.33374,1.94013,388.134,33.317,45.068,45.000,0.00,0.10,-272.73,-272.79,-8,1014,-6,24.1,24.8,2.8,23.9,25.6,3.0,5.73,1.88,3.4,27.8
2015-08-16 00:37:00,0.0,1.92151,0.00055,383.508,0.054,0.9597,0.0027,140.002,45.000,34547.09062,1.94022,388.073,33.319,45.068,45.000,0.00,0.10,-272.73,-272.80,-8,1013,-6,24.1,25.0,2.9,23.9,25.8,3.1,5.73,1.85,3.4,27.8
2015-08-16 00:38:00,0.0,1.92215,0.00048,383.355,0.072,0.9712,0.0042,139.998,45.000,34543.22123,1.94104,387.972,33.356,45.068,45.000,0.00,0.10,-272.73,-272.79,-8,1014,-6,24.2,25.3,3.0,23.9,26.1,3.2,5.73,1.88,3.4,27.9
2015-08-16 00:39:00,0.0,1.92197,0.00024,383.234,0.106,0.9734,0.0027,140.000,45.000,34542.48199,1.94098,387.870,33.374,45.068,45.000,0.00,0.10,-272.73,-272.79,-9,1013,-6,24.1,25.3,3.0,23.9,26.2,3.3,5.73,1.94,3.4,27.9
2015-08-16 00:40:00,0.0,1.92189,0.00025,383.341,0.144,0.9730,0.0027,139.997,45.000,34542.17359,1.94089,387.973,33.374,45.068,45.000,0.00,0.10,-272.74,-272.79,-8,1013,-6,24.2,25.3,3.0,23.9,26.2,3.3,5.73,1.97,3.4,27.9
2015-08-16 00:41:00,0.0,1.92153,0.00042,383.263,0.086,0.9762,0.0020,139.998,45.000,34543.23486,1.94061,387.901,33.375,45.068,45.000,0.00,0.10,-272.74,-272.79,-8,1013,-6,24.2,25.4,3.1,23.9,26.2,3.3,5.73,1.94,3.4,27.9
2015-08-16 00:42:00,0.0,1.92120,0.00036,383.215,0.092,0.9759,0.0015,140.001,45.000,34544.84912,1.94021,387.856,33.387,45.068,45.000,0.00,0.10,-272.73,-272.79,-8,1014,-6,24.2,25.3,3.1,23.9,26.2,3.3,5.73,1.87,3.4,27.9
2015-08-16 00:43:00,0.0,1.92147,0.00082,383.373,0.202,0.9727,0.0038,139.996,45.000,34542.86261,1.94037,387.992,33.398,45.068,45.000,0.00,0.10,-272.73,-272.80,-9,1014,-6,24.2,25.2,3.0,23.9,26.1,3.3,5.73,1.85,3.4,27.9
2015-08-16 00:44:00,0.0,1.92191,0.00064,383.543,0.054,0.9604,0.0019,139.996,45.000,34543.03944,1.94068,388.115,33.407,45.068,45.000,0.00,0.10,-272.73,-272.80,-8,1013,-6,24.2,24.8,2.8,23.9,25.8,3.1,5.73,1.89,3.4,27.9
2015-08-16 00:45:00,0.0,1.92223,0.00051,383.483,0.038,0.9607,0.0019,139.999,45.000,34546.19510,1.94100,388.053,33.415,45.068,45.000,0.00,0.10,-272.73,-272.79,-8,1013,-6,24.2,24.9,2.8,23.9,25.8,3.1,5.73,1.94,3.4,27.8
2015-08-16 00:46:00,0.0,1.92296,0.00026,383.480,0.076,0.9659,0.0027,139.996,45.000,34543.11099,1.94177,388.078,33.410,45.068,45.000,0.00,0.10,-272.73,-272.79,-8,1013,-6,24.2,25.0,2.9,23.9,25.9,3.1,5.73,1.96,3.4,27.9
2015-08-16 00:47:00,0.0,1.92300,0.00044,383.398,0.052,0.9707,0.0023,139.996,45.000,34538.37206,1.94197,388.017,33.395,45.068,45.000,0.00,0.10,-272.74,-272.80,-8,1013,-6,24.2,25.1,3.0,23.9,26.0,3.2,5.73,1.93,3.5,27.9
2015-08-16 00:48:00,0.0,1.92394,0.00076,383.414,0.096,0.9746,0.0019,140.001,45.000,34538.73847,1.94295,388.043,33.407,45.068,45.000,0.00,0.10,-272.73,-272.80,-9,1013,-6,24.2,25.2,3.0,23.9,26.1,3.3,5.73,1.88,3.4,27.9
2015-08-16 00:49:00,0.0,1.92297,0.00047,383.458,0.061,0.9719,0.0028,139.997,45.000,34540.13008,1.94194,388.089,33.433,45.068,45.000,0.00,0.10,-272.73,-272.79,-8,1013,-6,24.2,25.1,3.0,23.9,26.1,3.3,5.73,1.85,3.4,27.9
2015-08-16 00:50:00,0.0,1.92259,0.00077,383.508,0.078,0.9709,0.0019,139.999,45.000,34538.21376,1.94158,388.121,33.434,45.068,45.000,0.00,0.10,-272.73,-272.80,-8,1013,-6,24.2,25.0,2.9,23.9,26.0,3.2,5.73,1.88,3.4,27.9
2015-08-16 00:51:00,0.0,1.92313,0.00068,383.595,0.041,0.9632,0.0021,140.002,45.000,34539.08906,1.94191,388.177,33.423,45.068,45.000,0.00,0.10,-272.74,-272.80,-8,1013,-6,24.2,24.8,2.8,23.9,25.8,3.1,5.73,1.93,3.5,27.9
2015-08-16 00:52:00,0.0,1.92327,0.00031,383.575,0.036,0.9650,0.0015,140.000,45.000,34537.74294,1.94211,388.167,33.433,45.068,45.000,0.00,0.10,-272.73,-272.79,-9,1013,-6,24.2,24.9,2.8,23.9,25.8,3.1,5.73,1.96,3.4,27.9
2015-08-16 00:53:00,0.0,1.92350,0.00039,383.576,0.023,0.9640,0.0020,140.001,45.000,34539.76706,1.94230,388.165,33.438,45.068,45.000,0.00,0.10,-272.73,-272.79,-9,1013,-6,24.2,24.9,2.9,23.9,25.8,3.1,5.73,1.95,3.5,27.9
2015-08-16 00:54:00,0.0,1.92341,0.00070,383.588,0.043,0.9663,0.0021,140.000,45.000,34537.50490,1.94231,388.188,33.437,45.068,45.000,0.00,0.10,-272.74,-272.79,-8,1013,-6,24.2,24.9,2.9,23.9,25.9,3.2,5.73,1.90,3.5,27.9
2015-08-16 00:55:00,0.0,1.92390,0.00057,383.527,0.087,0.9666,0.0022,139.998,45.000,34537.35288,1.94265,388.122,33.433,45.068,45.000,0.00,0.10,-272.73,-272.79,-8,1013,-6,24.2,24.9,2.9,23.9,25.9,3.2,5.73,1.86,3.4,27.9
2015-08-16 00:56:00,0.0,1.92469,0.00038,383.609,0.039,0.9697,0.0023,140.001,45.000,34541.20656,1.94363,388.222,33.438,45.068,45.000,0.00,0.10,-272.73,-272.79,-9,1013,-6,24.2,25.0,2.9,23.9,25.9,3.2,5.73,1.87,3.4,27.9
2015-08-16 00:57:00,0.0,1.92431,0.00056,383.587,0.039,0.9713,0.0019,139.997,45.000,34539.82470,1.94327,388.212,33.438,45.068,45.000,0.00,0.10,-272.73,-272.80,-9,1013,-6,24.2,25.0,2.9,23.9,26.0,3.2,5.73,1.90,3.5,27.9
2015-08-16 00:58:00,0.0,1.92409,0.00031,383.589,0.027,0.9720,0.0026,140.004,45.000,34539.88287,1.94312,388.214,33.438,45.068,45.000,0.00,0.10,-272.73,-272.80,-8,1013,-6,24.2,25.1,3.0,23.9,26.0,3.3,5.73,1.96,3.5,27.9
2015-08-16 00:59:00,0.0,1.92436,0.00031,383.474,0.087,0.9747,0.0018,140.001,45.000,34538.00759,1.94338,388.111,33.438,45.068,45.000,0.00,0.10,-272.72,-272.79,-8,1013,-6,24.2,25.1,3.0,23.9,26.1,3.3,5.73,1.95,3.5,27.9
2015-08-16 01:00:00,0.0,1.92487,0.00041,383.502,0.073,0.9780,0.0021,139.997,45.000,34538.90820,1.94396,388.159,33.438,45.068,45.000,0.00,0.10,-272.73,-272.79,-8,1013,-6,24.2,25.2,3.0,23.9,26.2,3.3,5.73,1.92,3.5,27.9
2015-08-16 01:01:00,0.0,1.92488,0.00052,383.556,0.036,0.9792,0.0018,139.997,45.000,34538.19294,1.94406,388.217,33.438,45.068,45.000,0.00,0.10,-272.73,-272.80,-9,1013,-6,24.2,25.2,3.1,23.9,26.2,3.3,5.73,1.86,3.5,27.9
2015-08-16 01:02:00,0.0,1.92509,0.00060,383.544,0.045,0.9735,0.0025,139.999,45.000,34538.83336,1.94409,388.175,33.438,45.068,45.000,0.00,0.10,-272.73,-272.79,-9,1013,-6,24.2,25.0,3.0,23.9,26.0,3.3,5.73,1.86,3.5,27.9
2015-08-16 01:03:00,0.0,1.92563,0.00053,383.618,0.031,0.9718,0.0013,140.002,45.000,34538.56748,1.94464,388.243,33.438,45.068,45.000,0.00,0.10,-272.73,-272.79,-8,1013,-6,24.2,25.0,3.0,23.9,26.0,3.2,5.73,1.89,3.5,27.9
2015-08-16 01:04:00,0.0,1.92474,0.00035,383.652,0.038,0.9707,0.0020,140.000,45.000,34536.84229,1.94371,388.272,33.440,45.068,45.000,0.00,0.10,-272.74,-272.80,-8,1013,-6,24.2,25.0,2.9,23.9,25.9,3.2,5.73,1.94,3.5,28.0
2015-08-16 01:05:00,0.0,1.92359,0.00081,383.673,0.029,0.9677,0.0038,139.997,45.000,34537.56199,1.94252,388.282,33.439,45.068,45.000,0.00,0.10,-272.73,-272.79,-9,1013,-6,24.2,24.9,2.9,23.9,25.9,3.2,5.73,1.96,3.5,27.9
2015-08-16 01:06:00,0.0,1.92353,0.00070,383.667,0.058,0.9605,0.0049,140.000,45.000,34539.37353,1.94224,388.244,33.440,45.068,45.000,0.00,0.10,-272.73,-272.79,-9,1013,-6,24.2,24.7,2.8,23.9,25.6,3.0,5.73,1.94,3.5,27.9
2015-08-16 01:07:00,0.0,1.92408,0.00045,383.693,0.066,0.9572,0.0016,140.000,45.000,34539.78367,1.94280,388.241,33.439,45.068,45.000,0.00,0.10,-272.74,-272.80,-9,1013,-6,24.3,24.6,2.8,23.9,25.5,3.0,5.73,1.88,3.5,28.0
2015-08-16 01:08:00,0.0,1.92399,0.00051,383.666,0.051,0.9621,0.0021,139.998,45.000,34544.37159,1.94283,388.243,33.438,45.068,45.000,0.00,0.10,-272.73,-272.79,-8,1014,-6,24.3,24.8,2.8,23.9,25.7,3.1,5.73,1.85,3.5,27.9
2015-08-16 01:09:00,0.0,1.92435,0.00044,383.617,0.067,0.9636,0.0016,140.001,45.000,34544.79829,1.94312,388.205,33.444,45.068,45.000,0.00,0.10,-272.72,-272.78,-8,1014,-6,24.2,24.8,2.8,24.0,25.7,3.1,5.73,1.87,3.5,27.9
2015-08-16 01:10:00,0.0,1.92426,0.00037,383.621,0.040,0.9669,0.0015,140.000,45.000,34541.41807,1.94316,388.221,33.446,45.068,45.000,0.00,0.10,-272.73,-272.80,-9,1014,-6,24.2,24.9,2.9,24.0,25.8,3.2,5.73,1.93,3.5,27.9
2015-08-16 01:11:00,0.0,1.92369,0.00086,383.686,0.024,0.9677,0.0028,139.998,45.000,34541.51267,1.94268,388.292,33.440,45.068,45.000,0.00,0.10,-272.74,-272.79,-9,1014,-6,24.3,24.9,2.9,24.0,25.8,3.2,5.73,1.96,3.5,27.9
2015-08-16 01:12:00,0.0,1.92377,0.00082,383.699,0.054,0.9602,0.0029,139.998,45.000,34542.27705,1.94238,388.268,33.441,45.068,45.000,0.00,0.10,-272.73,-272.79,-8,1013,-6,24.3,24.6,2.8,24.0,25.6,3.0,5.73,1.94,3.5,27.9
2015-08-16 01:13:00,0.0,1.92537,0.00054,383.745,0.041,0.9585,0.0026,140.002,45.000,34544.73727,1.94407,388.306,33.439,45.068,45.000,0.00,0.10,-272.73,-272.79,-8,1014,-6,24.3,24.7,2.8,24.0,25.6,3.0,5.73,1.89,3.5,27.9
2015-08-16 01:14:00,0.0,1.92575,0.00062,383.732,0.022,0.9625,0.0015,139.999,45.000,34545.85393,1.94448,388.312,33.439,45.068,45.000,0.00,0.10,-272.73,-272.80,-8,1014,-6,24.3,24.8,2.8,24.0,25.7,3.1,5.73,1.85,3.5,28.0
2015-08-16 01:15:00,0.0,1.92548,0.00050,383.670,0.034,0.9652,0.0027,140.000,45.000,34545.39787,1.94445,388.265,33.440,45.068,45.000,0.00,0.10,-272.73,-272.80,-9,1014,-6,24.3,24.8,2.9,24.0,25.7,3.1,5.73,1.87,3.5,28.0
2015-08-16 01:16:00,0.0,1.92430,0.00035,383.474,0.158,0.9670,0.0023,140.002,45.000,34548.25516,1.94318,388.083,33.441,45.068,45.000,0.00,0.10,-272.73,-272.79,-8,1014,-6,24.3,24.9,2.9,24.0,25.8,3.2,5.73,1.92,3.5,28.0
2015-08-16 01:17:00,0.0,1.92458,0.00036,383.413,0.138,0.9688,0.0026,139.999,45.000,34548.47075,1.94353,388.014,33.439,45.068,45.000,0.00,0.10,-272.73,-272.80,-8,1013,-6,24.3,24.9,2.9,24.0,25.8,3.2,5.73,1.97,3.5,27.9
2015-08-16 01:18:00,0.0,1.92412,0.00067,383.609,0.069,0.9717,0.0023,140.002,45.000,34547.70507,1.94309,388.233,33.449,45.068,45.000,0.00,0.10,-272.74,-272.80,-8,1014,-6,24.3,25.0,3.0,24.0,25.9,3.2,5.73,1.95,3.5,28.0
2015-08-16 01:19:00,0.0,1.92375,0.00064,383.704,0.034,0.9677,0.0025,139.998,45.000,34543.91747,1.94264,388.309,33.452,45.068,45.000,0.00,0.10,-272.73,-272.79,-8,1014,-6,24.3,24.9,2.9,24.0,25.8,3.2,5.73,1.89,3.5,28.0
2015-08-16 01:20:00,0.0,1.92441,0.00049,383.718,0.030,0.9628,0.0022,139.999,45.000,34545.68261,1.94328,388.304,33.483,45.068,45.000,0.00,0.10,-272.73,-272.79,-9,1014,-6,24.3,24.7,2.8,24.0,25.7,3.1,5.73,1.85,3.5,28.0
2015-08-16 01:21:00,0.0,1.92429,0.00032,383.695,0.045,0.9634,0.0015,139.998,45.000,34545.16511,1.94303,388.278,33.471,45.068,45.000,0.00,0.10,-272.74,-272.80,-8,1014,-6,24.3,24.8,2.8,24.0,25.7,3.1,5.73,1.87,3.5,28.0
2015-08-16 01:22:00,0.0,1.92419,0.00038,383.741,0.028,0.9646,0.0014,140.004,45.000,34547.46712,1.94309,388.331,33.459,45.068,45.000,0.00,0.10,-272.73,-272.79,-8,1014,-6,24.3,24.8,2.9,24.0,25.7,3.1,5.73,1.93,3.5,28.0
2015-08-16 01:23:00,0.0,1.92451,0.00056,383.697,0.049,0.9648,0.0022,139.999,45.000,34549.04416,1.94329,388.295,33.461,45.068,45.000,0.00,0.10,-272.73,-272.79,-8,1014,-6,24.3,24.8,2.9,24.0,25.7,3.1,5.73,1.96,3.5,28.0
2015-08-16 01:24:00,0.0,1.92476,0.00030,383.648,0.044,0.9686,0.0022,140.006,45.000,34549.52859,1.94368,388.257,33.486,45.068,45.000,0.00,0.10,-272.73,-272.79,-9,1014,-6,24.3,24.9,2.9,24.0,25.8,3.2,5.73,1.94,3.5,28.0
2015-08-16 01:25:00,0.0,1.92500,0.00038,383.674,0.030,0.9707,0.0017,139.996,45.000,34547.90511,1.94394,388.293,33.481,45.068,45.000,0.00,0.10,-272.73,-272.79,-8,1013,-6,24.3,24.9,2.9,24.0,25.8,3.2,5.73,1.89,3.5,27.9
2015-08-16 01:26:00,0.0,1.92557,0.00037,383.636,0.052,0.9727,0.0024,139.998,45.000,34548.85455,1.94459,388.267,33.497,45.068,45.000,0.00,0.10,-272.72,-272.79,-8,1014,-6,24.3,25.0,3.0,24.0,25.9,3.3,5.73,1.86,3.5,27.9
2015-08-16 01:27:00,0.0,1.92550,0.00032,383.506,0.050,0.9755,0.0036,140.006,45.000,34551.73333,1.94456,388.150,33.499,45.068,45.000,0.00,0.10,-272.73,-272.80,-8,1014,-6,24.3,25.1,3.0,24.0,26.0,3.3,5.73,1.87,3.5,27.8
2015-08-16 01:28:00,0.0,1.92495,0.00048,383.350,0.116,0.9832,0.0024,139.997,45.000,34548.36613,1.94419,388.031,33.500,45.068,45.000,0.00,0.10,-272.74,-272.80,-9,1014,-6,24.3,25.3,3.1,24.0,26.2,3.4,5.73,1.93,3.5,27.9
2015-08-16 01:29:00,0.0,1.92504,0.00053,383.190,0.262,0.9884,0.0025,139.999,45.000,34549.03041,1.94432,387.890,33.500,45.068,45.000,0.00,0.10,-272.73,-272.79,-9,1014,-6,24.3,25.4,3.2,24.0,26.3,3.5,5.73,1.96,3.5,27.9
2015-08-16 01:30:00,0.0,1.92551,0.00037,383.427,0.164,0.9933,0.0019,140.001,45.000,34549.40402,1.94496,388.152,33.498,45.068,45.000,0.00,0.10,-272.73,-272.80,-8,1014,-6,24.3,25.6,3.3,24.0,26.5,3.6,5.73,1.95,3.5,27.9
2015-08-16 01:31:00,0.0,1.92702,0.00140,383.471,0.164,0.9898,0.0020,139.998,45.000,34546.25330,1.94619,388.189,33.500,45.068,45.000,0.00,0.10,-272.73,-272.80,-8,1014,-6,24.3,25.4,3.2,24.0,26.4,3.5,5.73,1.89,3.5,27.9
2015-08-16 01:32:00,0.0,1.92871,0.00037,383.481,0.113,0.9900,0.0022,139.998,45.000,34544.84537,1.94813,388.197,33.500,45.068,45.000,0.00,0.10,-272.73,-272.79,-8,1014,-6,24.3,25.5,3.2,24.0,26.4,3.5,5.73,1.85,3.5,28.0
2015-08-16 01:33:00,0.0,1.92805,0.00050,383.504,0.065,0.9914,0.0010,140.000,45.000,34547.30333,1.94749,388.217,33.500,45.068,45.000,0.00,0.10,-272.73,-272.79,-9,1014,-6,24.3,25.5,3.3,24.0,26.5,3.5,5.73,1.87,3.5,27.9
2015-08-16 01:34:00,0.0,1.92857,0.00034,383.481,0.126,0.9904,0.0022,140.002,45.000,34548.84729,1.94795,388.196,33.500,45.068,45.000,0.00,0.10,-272.74,-272.79,-8,1014,-6,24.3,25.5,3.2,24.0,26.4,3.5,5.73,1.92,3.5,27.9
2015-08-16 01:35:00,0.0,1.92844,0.00036,383.551,0.042,0.9932,0.0024,140.001,45.000,34546.85687,1.94793,388.283,33.478,45.068,45.000,0.00,0.10,-272.74,-272.79,-8,1014,-6,24.3,25.5,3.3,24.0,26.5,3.6,5.73,1.97,3.5,27.9
2015-08-16 01:36:00,0.0,1.92821,0.00028,383.471,0.071,0.9952,0.0022,139.998,45.000,34545.34898,1.94768,388.211,33.488,45.068,45.000,0.00,0.10,-272.73,-272.79,-8,1014,-6,24.3,25.6,3.3,24.0,26.5,3.6,5.73,1.94,3.5,28.0
2015-08-16 01:37:00,0.0,1.92905,0.00089,383.398,0.103,0.9980,0.0015,140.002,45.000,34545.45479,1.94856,388.145,33.474,45.068,45.000,0.00,0.10,-272.74,-272.79,-9,1014,-6,24.3,25.6,3.3,24.0,26.6,3.6,5.73,1.89,3.5,27.9
2015-08-16 01:38:00,0.0,1.93070,0.00131,383.706,0.057,0.9893,0.0062,139.997,45.000,34546.66336,1.94993,388.420,33.453,45.068,45.000,0.00,0.10,-272.73,-272.80,-9,1014,-6,24.3,25.4,3.2,24.0,26.4,3.5,5.73,1.85,3.5,27.9
2015-08-16 01:39:00,0.0,1.93222,0.00040,383.690,0.086,0.9856,0.0018,140.001,45.000,34549.23981,1.95160,388.392,33.450,45.068,45.000,0.00,0.10,-272.72,-272.79,-8,1014,-6,24.3,25.3,3.2,24.0,26.3,3.4,5.73,1.87,3.5,27.9
2015-08-16 01:40:00,0.0,1.93214,0.00037,383.466,0.175,0.9981,0.0059,140.001,45.000,34547.17936,1.95171,388.214,33.452,45.068,45.000,0.00,0.10,-272.73,-272.79,-8,1014,-6,24.3,25.7,3.4,24.0,26.6,3.6,5.73,1.93,3.5,27.9
2015-08-16 01:41:00,0.0,1.93167,0.00038,383.215,0.223,1.0115,0.0016,140.001,45.000,34548.46125,1.95153,388.048,33.467,45.068,45.000,0.00,0.10,-272.73,-272.80,-8,1014,-6,24.3,26.1,3.6,24.0,27.0,3.8,5.73,1.96,3.5,27.9
2015-08-16 01:42:00,0.0,1.93192,0.00100,383.230,0.281,1.0160,0.0047,140.003,45.000,34547.33857,1.95195,388.049,33.480,45.068,45.000,0.00,0.10,-272.73,-272.80,-9,1014,-6,24.3,26.2,3.7,24.0,27.1,3.9,5.73,1.95,3.5,28.0
2015-08-16 01:43:00,0.0,1.93062,0.00093,383.259,0.114,1.0186,0.0015,140.000,45.000,34548.49369,1.95062,388.113,33.485,45.068,45.000,0.00,0.10,-272.73,-272.79,-8,1014,-6,24.3,26.2,3.7,24.0,27.2,3.9,5.73,1.89,3.5,28.0
2015-08-16 01:44:00,0.0,1.93106,0.00107,383.449,0.125,1.0119,0.0052,140.000,45.000,34549.72293,1.95083,388.275,33.487,45.068,45.000,0.00,0.10,-272.74,-272.80,-8,1014,-6,24.3,26.0,3.5,24.0,27.0,3.9,5.73,1.86,3.5,28.0
2015-08-16 01:45:00,0.0,1.93271,0.00051,383.474,0.087,0.9985,0.0024,139.999,45.000,34548.32364,1.95227,388.228,33.493,45.068,45.000,0.00,0.10,-272.74,-272.80,-8,1014,-6,24.3,25.7,3.4,24.0,26.7,3.7,5.73,1.87,3.5,28.0
2015-08-16 01:46:00,0.0,1.93321,0.00036,383.291,0.285,1.0045,0.0047,139.999,45.000,34546.95956,1.95297,388.067,33.499,45.068,45.000,0.00,0.10,-272.73,-272.80,-9,1014,-6,24.3,25.9,3.5,24.0,26.7,3.7,5.73,1.92,3.5,27.9
2015-08-16 01:47:00,0.0,1.93281,0.00039,383.585,0.050,1.0088,0.0043,140.001,45.000,34550.75973,1.95261,388.395,33.497,45.068,45.000,0.00,0.10,-272.73,-272.79,-8,1014,-6,24.3,25.9,3.5,24.0,26.9,3.8,5.73,1.96,3.5,28.0